[[{"header":{"parameterUnit":"m.s-1","parameterCategory":1,"la1":30.2991,"la2":30.254,"lo1":-89.0895,"lo2":-89.0444,"dy":0.0017,"dx":0.0017,"nx":28,"ny":28,"refTime":"2024-02-12T03:00:00:Z","depth":0,"parameterNumber":2,"parameterNumberName":"U-component_of_WINDS"},"data":[0,0,0,0,0,0,0,0,0,0,0,0,0,0,0,0,0,0,0,0,0,0,0,0,0,0,0,0,0,0,0,0,0,0,0,0,0,0,0,0,0,0,0,0,0,0,0,0,0,0,0,0,0,0,0,0,0,0,5.5258,5.5259,0,5.5348,5.5349,5.535,5.5294,5.5292,5.5289,5.5286,5.5378,5.5383,5.5388,0,0,0,0,0,0,0,0,0,0,0,0,0,5.5036,5.5041,5.5258,5.5259,5.526,5.5348,5.535,5.5351,5.5295,5.5291,5.5288,5.5285,5.5377,5.5383,5.5388,0,0,0,0,0,0,0,0,0,0,0,0,0,5.513,5.5042,5.5257,5.5243,5.5242,5.5348,5.535,5.5351,5.5295,5.5291,5.5287,5.5284,5.5375,5.5382,5.5389,5.5515,0,0,5.5412,5.5415,0,0,0,0,0,0,0,0,5.5125,5.5138,5.5244,5.5244,5.5244,5.5306,5.5305,5.5406,5.5296,5.5275,5.5286,5.5282,5.5357,5.5366,5.5392,5.5519,5.5523,5.5412,5.5417,5.542,5.5422,0,0,0,0,0,0,0,5.5119,5.5134,5.5293,5.5245,5.5245,5.5232,5.5241,5.5324,5.5337,5.5277,5.5273,5.5284,5.5357,5.5385,5.5393,5.5524,5.5412,5.5419,5.5423,5.5426,5.576,5.5765,0,0,0,0,0,0,5.5113,5.5129,5.5291,5.5296,5.5173,5.5239,5.5249,5.529,5.5336,5.534,5.5288,5.5281,5.5374,5.5385,5.5396,5.5547,5.542,5.5427,5.5431,5.5756,5.5761,5.5766,0,0,0,0,0,0,5.5109,5.5128,5.5287,5.5212,5.5231,5.5247,5.5293,5.5294,5.5322,5.5345,5.5347,5.5314,5.5371,5.5386,5.5486,5.555,5.543,5.5437,5.5751,5.5758,5.5764,5.5849,0,0,0,0,0,0,5.5103,5.5127,5.5174,5.5213,5.5235,5.5375,5.5297,5.5298,5.5335,5.5328,5.537,5.5373,5.5369,5.5475,5.5493,5.5558,5.5443,5.5745,5.5754,5.5762,5.5841,5.5858,5.5873,0,0,0,0,0,5.5095,5.5194,5.5177,5.5197,5.5295,5.5379,5.5391,5.5385,5.534,5.5388,5.5403,5.5372,5.554,5.5486,5.5506,5.5573,5.5741,5.5751,5.5761,5.5834,5.5855,5.5872,0,0,0,0,0,0,5.5162,5.5199,5.518,5.5295,5.5335,5.5369,5.543,5.5408,5.546,5.5451,5.5441,5.5451,5.5556,5.5574,5.5514,5.5698,5.5633,5.5648,5.5682,5.5702,5.5718,5.5711,5.5449,0,0,0,0,0,5.519,5.5255,5.5284,5.5383,5.5403,5.5414,5.545,5.5442,5.5482,5.5498,5.552,5.556,5.5622,5.5663,5.5721,5.5844,5.5852,5.59,5.5916,5.5929,5.5941,5.6009,5.6031,5.5799,5.5799,5.5799,0,0,5.5248,5.5277,5.5319,5.5397,5.5426,5.5494,5.5428,5.5502,5.5553,5.5509,5.5605,5.5623,5.5667,5.578,5.583,5.5798,5.6007,5.5942,5.5952,5.5957,5.6021,5.6043,5.6063,5.5806,5.5805,5.5804,0,0,5.539,5.5418,5.5504,5.5536,5.5581,5.5588,5.5609,5.5647,5.5658,5.5754,5.5724,5.5784,5.589,5.5923,5.5954,5.6111,5.6085,5.613,5.6214,5.628,5.6298,5.6314,5.6371,5.6391,5.6143,5.6143,5.6143,0,5.5457,5.5559,5.5551,5.5629,5.5664,5.5629,5.5717,5.5747,5.581,5.5836,5.5799,5.5934,5.5961,5.6081,5.6119,5.6145,5.6169,5.6125,5.6296,5.6312,5.6327,5.6381,5.6402,5.6148,5.6148,5.6147,5.6147,0,5.564,5.5711,5.5775,5.5837,5.588,5.5962,5.5967,5.6012,5.6001,5.6011,5.6111,5.6142,5.6207,5.6235,5.6224,5.6354,5.6333,5.6297,5.6232,5.6355,5.6405,5.6426,5.6156,5.6154,5.6153,5.6151,0,0,5.5825,5.5883,5.5907,5.5935,5.5984,5.6039,5.612,5.6184,5.6223,5.6268,5.6336,5.6428,5.6395,5.643,5.6423,5.6481,5.6605,5.6438,5.6439,5.6468,5.6751,5.6779,5.6803,5.6588,5.6592,5.6595,5.6748,0,5.597,5.6112,5.6108,5.624,5.6306,5.6275,5.6346,5.6384,5.6396,5.6454,5.6467,5.6533,5.6485,5.6506,5.6562,5.6578,5.6662,5.6567,5.6651,5.6654,5.6641,5.6829,5.6858,5.7001,5.6768,5.6771,5.6773,0,5.6159,5.6211,5.635,5.6391,5.6418,5.6482,5.6541,5.6597,5.664,5.6644,5.6685,5.6669,5.6752,5.6685,5.68,5.6736,5.677,5.6783,5.6789,5.6796,5.6721,5.6842,5.7046,5.7068,5.6804,5.6802,5.68,0,5.6281,5.6386,5.6483,5.6508,5.6558,5.6604,5.6627,5.6665,5.6705,5.6757,5.6782,5.6843,5.6876,5.6924,5.6925,5.6876,5.7041,5.6974,5.7048,5.7048,5.7084,5.7082,5.7297,5.7106,5.7106,5.7105,5.7105,0,5.6444,5.653,5.6539,5.6599,5.6695,5.669,5.6786,5.6804,5.6839,5.6902,5.6879,5.6939,5.6937,5.6998,5.6999,5.7095,5.711,5.7116,5.7116,5.7119,5.7118,5.7141,5.7131,5.7111,5.711,5.7109,5.7108,0,5.6597,5.6606,5.671,5.6749,5.6761,5.683,5.6864,5.6921,5.6932,5.7012,5.7031,5.7048,5.7118,5.7125,5.7206,5.7207,5.7323,5.7311,5.7309,5.7307,5.7381,5.7374,5.7618,5.765,5.7438,5.744,5.7442,0,5.67,5.6766,5.6813,5.6854,5.688,5.6946,5.6986,5.6984,5.7027,5.7082,5.7133,5.7202,5.7256,5.7371,5.7391,5.7453,5.7443,5.7525,5.7453,5.7454,5.7445,5.7442,5.7449,5.7539,5.7541,5.7543,5.7544,0,5.6884,5.6885,5.6944,5.7006,5.7055,5.7103,5.7148,5.7183,5.7187,5.7237,5.7309,5.7352,5.7436,5.7505,5.7567,5.759,5.7569,5.7567,5.7588,5.7591,5.7587,5.7591,5.7347,5.7561,5.756,5.7558,5.7558,5.7557,5.7015,5.7073,5.7115,5.7183,5.7217,5.726,5.7316,5.7334,5.7395,5.7464,5.7459,5.7539,5.7582,5.7663,5.7692,5.7755,5.7727,5.7757,5.7764,5.7772,5.778,5.7578,5.7766,5.7765,5.7765,5.7764,5.7764,0,5.7198,5.7224,5.7286,5.735,5.7404,5.7379,5.7428,5.7474,5.7546,5.7587,5.7642,5.7726,5.7793,5.7819,5.7884,5.793,5.7922,5.7947,5.7944,5.795,5.78,5.7776,5.7953,5.7953,5.7953,5.7953,5.7953,5.7953,5.7299,5.7396,5.7403,5.7517,5.7542,5.7621,5.7651,5.7691,5.7725,5.782,5.7876,5.7892,5.7928,5.7996,5.8057,5.8062,5.8088,5.8118,5.812,5.7979,5.796,5.7942,5.7919,5.8123,5.8123,5.8264,5.8265,5.8266]},{"header":{"parameterUnit":"m.s-1","parameterCategory":1,"la1":30.2991,"la2":30.254,"lo1":-89.0895,"lo2":-89.0444,"dy":0.0017,"dx":0.0017,"nx":28,"ny":28,"refTime":"2024-02-12T03:00:00:Z","depth":0,"parameterNumber":3,"parameterNumberName":"V-component_of_WINDS"},"data":[0,0,0,0,0,0,0,0,0,0,0,0,0,0,0,0,0,0,0,0,0,0,0,0,0,0,0,0,0,0,0,0,0,0,0,0,0,0,0,0,0,0,0,0,0,0,0,0,0,0,0,0,0,0,0,0,0,0,-5.9354,-5.9356,0,-5.9497,-5.9499,-5.9501,-5.9475,-5.9472,-5.947,-5.9467,-5.9611,-5.9617,-5.9623,0,0,0,0,0,0,0,0,0,0,0,0,0,-5.9058,-5.9063,-5.9354,-5.9356,-5.9358,-5.9497,-5.9499,-5.9501,-5.9475,-5.9472,-5.9469,-5.9466,-5.9609,-5.9616,-5.9624,0,0,0,0,0,0,0,0,0,0,0,0,0,-5.9192,-5.9065,-5.9354,-5.9362,-5.9364,-5.9497,-5.9499,-5.9501,-5.9476,-5.9472,-5.9468,-5.9465,-5.9607,-5.9616,-5.9625,-5.9758,0,0,-5.9653,-5.9657,0,0,0,0,0,0,0,0,-5.9184,-5.9203,-5.9359,-5.9362,-5.9364,-5.9464,-5.9447,-5.9587,-5.9477,-5.9433,-5.9467,-5.9463,-5.9565,-5.9578,-5.9613,-5.9765,-5.9771,-5.9654,-5.966,-5.9664,-5.9666,0,0,0,0,0,0,0,-5.9175,-5.9197,-5.9411,-5.9361,-5.9364,-5.9358,-5.9373,-5.9474,-5.9519,-5.9437,-5.9435,-5.9453,-5.9566,-5.9604,-5.9616,-5.9773,-5.9654,-5.9662,-5.9668,-5.9671,-6.0042,-6.0046,0,0,0,0,0,0,-5.9164,-5.9189,-5.9406,-5.9415,-5.9263,-5.9366,-5.9383,-5.9436,-5.9518,-5.9526,-5.9456,-5.9451,-5.959,-5.9605,-5.9621,-5.9783,-5.9664,-5.9672,-5.9678,-6.0038,-6.0043,-6.0048,0,0,0,0,0,0,-5.9157,-5.9183,-5.94,-5.9302,-5.9329,-5.9375,-5.9435,-5.9441,-5.9479,-5.9532,-5.954,-5.9486,-5.9588,-5.9608,-5.9725,-5.9787,-5.9677,-5.9685,-6.0033,-6.0039,-6.0045,-6.0107,0,0,0,0,0,0,-5.9149,-5.9181,-5.9233,-5.9303,-5.9334,-5.9502,-5.9439,-5.9446,-5.9495,-5.949,-5.9563,-5.9571,-5.9586,-5.9711,-5.9734,-5.9798,-5.9692,-6.0027,-6.0036,-6.0043,-6.0099,-6.0114,-6.0127,0,0,0,0,0,-5.9138,-5.9243,-5.9235,-5.9262,-5.94,-5.9506,-5.9524,-5.954,-5.95,-5.9552,-5.9586,-5.9569,-5.9777,-5.9723,-5.9749,-5.9816,-6.0024,-6.0033,-6.0043,-6.0093,-6.0111,-6.0127,0,0,0,0,0,0,-5.9178,-5.9253,-5.9245,-5.9376,-5.9435,-5.9501,-5.9567,-5.9559,-5.963,-5.9622,-5.9638,-5.9654,-5.9773,-5.9806,-5.9745,-5.995,-5.9894,-5.991,-5.9924,-5.9942,-5.9956,-5.9945,-5.97,0,0,0,0,0,-5.9202,-5.9283,-5.9344,-5.9454,-5.9484,-5.9521,-5.9568,-5.9575,-5.9636,-5.9661,-5.9704,-5.9764,-5.9842,-5.9894,-5.9969,-6.0104,-6.0119,-6.0163,-6.0177,-6.0189,-6.0201,-6.0275,-6.0296,-6.0079,-6.0079,-6.0079,0,0,-5.9253,-5.9304,-5.9353,-5.9463,-5.951,-5.9592,-5.9542,-5.9631,-5.9693,-5.9674,-5.9787,-5.9821,-5.9889,-6.0015,-6.0073,-6.0047,-6.0265,-6.0201,-6.021,-6.0216,-6.0287,-6.0308,-6.0326,-6.0086,-6.0085,-6.0084,0,0,-5.9387,-5.9434,-5.9531,-5.9579,-5.965,-5.9674,-5.9698,-5.9766,-5.9788,-5.9902,-5.989,-5.9963,-6.0098,-6.0147,-6.019,-6.0344,-6.033,-6.0368,-6.0441,-6.0513,-6.053,-6.0546,-6.0601,-6.062,-6.0381,-6.0381,-6.0381,0,-5.944,-5.9565,-5.9581,-5.9673,-5.9721,-5.9709,-5.9807,-5.9853,-5.9945,-5.9979,-5.9948,-6.0119,-6.0163,-6.0301,-6.0339,-6.0374,-6.0401,-6.036,-6.0527,-6.0542,-6.0557,-6.0609,-6.063,-6.0385,-6.0385,-6.0384,-6.0384,0,-5.9628,-5.9715,-5.9784,-5.9875,-5.9931,-6.0025,-6.0055,-6.011,-6.0113,-6.014,-6.0256,-6.031,-6.0396,-6.0429,-6.0432,-6.0568,-6.055,-6.0523,-6.0467,-6.0581,-6.0631,-6.0651,-6.0391,-6.039,-6.0388,-6.0387,0,0,-5.979,-5.9889,-5.9915,-5.9956,-6.0034,-6.0102,-6.0195,-6.0281,-6.0328,-6.0392,-6.0471,-6.0586,-6.0562,-6.0611,-6.0619,-6.0682,-6.0801,-6.0648,-6.065,-6.0675,-6.0954,-6.0974,-6.0997,-6.0793,-6.0797,-6.08,-6.0949,0,-5.9932,-6.0098,-6.0116,-6.0264,-6.0345,-6.0335,-6.0417,-6.0473,-6.0501,-6.0573,-6.0604,-6.0686,-6.0648,-6.0677,-6.0739,-6.0774,-6.0858,-6.0763,-6.0866,-6.0869,-6.0849,-6.1023,-6.1044,-6.1181,-6.0968,-6.0971,-6.0974,0,-6.012,-6.0191,-6.0347,-6.0415,-6.045,-6.0523,-6.0603,-6.0672,-6.0736,-6.0752,-6.0807,-6.0807,-6.0903,-6.0845,-6.0977,-6.0913,-6.0956,-6.0979,-6.0985,-6.0995,-6.0928,-6.1037,-6.1226,-6.1246,-6.1005,-6.1002,-6.1,0,-6.0223,-6.0357,-6.0469,-6.0504,-6.0586,-6.0638,-6.0674,-6.0735,-6.0785,-6.0855,-6.0888,-6.0968,-6.1011,-6.1073,-6.1094,-6.105,-6.1226,-6.1169,-6.1242,-6.1241,-6.1279,-6.1276,-6.1477,-6.1307,-6.1307,-6.1307,-6.1306,0,-6.0379,-6.0476,-6.0516,-6.0585,-6.0692,-6.0711,-6.0817,-6.0851,-6.0905,-6.098,-6.0976,-6.1045,-6.107,-6.1144,-6.1161,-6.1269,-6.1288,-6.1304,-6.1307,-6.1304,-6.1302,-6.1332,-6.1323,-6.1312,-6.1311,-6.131,-6.1309,0,-6.0513,-6.0544,-6.0664,-6.0733,-6.0752,-6.0828,-6.0886,-6.0952,-6.098,-6.1074,-6.1097,-6.114,-6.1227,-6.1255,-6.1359,-6.1371,-6.1497,-6.1492,-6.1475,-6.1476,-6.1547,-6.154,-6.1774,-6.1805,-6.1615,-6.1616,-6.1618,0,-6.061,-6.0685,-6.0761,-6.0811,-6.085,-6.093,-6.0982,-6.1004,-6.1058,-6.1137,-6.1193,-6.128,-6.135,-6.1489,-6.1529,-6.1609,-6.1606,-6.1682,-6.1618,-6.1613,-6.1607,-6.1602,-6.161,-6.1694,-6.1696,-6.1698,-6.1699,0,-6.0781,-6.0793,-6.0868,-6.0949,-6.1011,-6.1075,-6.1138,-6.1179,-6.1209,-6.127,-6.1359,-6.1414,-6.1522,-6.1607,-6.1689,-6.1726,-6.1718,-6.1719,-6.174,-6.1738,-6.1726,-6.1733,-6.1508,-6.1714,-6.1712,-6.1711,-6.171,-6.171,-6.09,-6.0965,-6.1029,-6.1113,-6.1163,-6.1221,-6.1287,-6.1322,-6.1398,-6.1487,-6.1495,-6.1592,-6.1654,-6.1764,-6.1805,-6.188,-6.1858,-6.1889,-6.1896,-6.1904,-6.1909,-6.1714,-6.1895,-6.1895,-6.1894,-6.1894,-6.1894,0,-6.107,-6.1111,-6.1188,-6.1276,-6.1342,-6.1329,-6.1398,-6.1454,-6.1539,-6.1598,-6.1668,-6.1771,-6.1854,-6.1901,-6.1984,-6.2035,-6.2034,-6.2056,-6.2053,-6.2061,-6.1924,-6.1898,-6.2056,-6.2056,-6.2056,-6.2056,-6.2056,-6.2056,-6.1166,-6.1277,-6.1296,-6.1431,-6.1471,-6.1566,-6.1606,-6.166,-6.1708,-6.1823,-6.1893,-6.1923,-6.1978,-6.2065,-6.214,-6.2152,-6.2183,-6.2208,-6.2217,-6.2088,-6.2071,-6.2055,-6.203,-6.2214,-6.2215,-6.2348,-6.2349,-6.235]}]]